Location: Falniów
(50.3639°N, 19.9642°E)
Time: 19:54:52
(UTC+00:00)

SL-08 R/B - Pass Details

Date: 22 April 2026
Orbit: 667 x 728 km, 98.5° (Epoch: 13 May)

Event Time Altitude Azimuth Distance (km) Brightness Sun altitude
Rises 20:06:03 0° 9° (N) 3,161 7.3 -18.9°
Reaches altitude 10° 20:08:27 10° 2° (N) 2,237 6.6 -19.2°
Maximum altitude 20:12:59 39° 295° (WNW) 1,095 4.8 -19.6°
Drops below altitude 10° 20:17:29 10° 227° (SW) 2,218 5.8 -20.1°
Sets 20:19:52 0° 220° (SW) 3,131 6.5 -20.3°
